sat.trackr.live / text

‹ back to catalog

STARLINK-36509

NORAD 67408 · 2026-005E

PAYLOAD ACTIVE UNKNOWN

§ Identity

Operator
Country
US
Launch date
2026-01-12
Launch site
AFETR
Launch vehicle
Mass (kg)
RCS (m²)

Purposes: comms

External: N2YO · Heavens-Above · Gunter

§ Orbital elements

Epoch: 2026-05-24T09:02:42.973728Z

Period
94.27 min
Inclination
43.0016°
Eccentricity
0.0001228
Mean motion
15.27584815 rev/d
Perigee alt
482.2 km
Apogee alt
483.9 km
Semi-major
6,861.2 km
B*
4.1734e-4
RAAN
170.3906°
Arg perigee
273.6209°
Mean anomaly
86.4503°
Rev number
2,026

§ Raw data

STARLINK-365091 67408U 26005E   26144.37688627  .00011241  00000+0  41734-3 0  99922 67408  43.0016 170.3906 0001228 273.6209  86.4503 15.27584815 20261

JSON: /api/v1/satellites/67408 · /tle

For live sub-satellite position, see the globe view (requires WebGL).

§ Visibility from observer

Set your observer location to see the next 7 days of passes ≥ 10°. The values pass through the URL so the page stays shareable.

No JS? Fill the form by hand. The geolocation button needs JavaScript.